Back to catalog

STARLINK-11281

AliveCommunicationsVLEO
NORAD 60996·PAYLOAD·🇺🇸 United States

Launched Sep 5, 2024 from Cape Canaveral Space Force Station

Loading…

Next Passes (next 24 hours)

TLE

FreshSource: CelesTrak SupGP

Epoch: Sep 14, 2026, 20:52 UTC

1 60996C 24158G   26257.86993056  .00042119  00000+0  34698-3 0  2574
2 60996  53.1571  68.8592 0001093  84.8493 325.5268 15.69686314    12

Track STARLINK-11281 in real time with AllMySat

Download on the App Store